Overview Statistics Trail Chart Weather Telemetry Raw packets
 

This is the latest recevied weather packets stored in our database for station/object M0HPP-13. If no packets are shown the sender has not sent any weather packets the latest 10 day(s).

<< 4 5 6 7 8 9 10 >>
Time Temp. Humidity Pressure Rain* Wind** Luminosity Snow
1788551886 11.67° C 86% 1002.6 hPa 0 mm - 0 W/m² -
1788551286 11.67° C 88% 1002.7 hPa 0 mm - 0 W/m² -
1788550686 11.11° C 88% 1002.6 hPa 0 mm - 0 W/m² -
1788550086 11.11° C 87% 1002.5 hPa 0 mm - 1 W/m² -
1788549486 11.67° C 86% 1002.4 hPa 0 mm - 3 W/m² -
1788548886 11.67° C 85% 1002.3 hPa 0 mm - 4 W/m² -
1788548286 11.67° C 85% 1002.1 hPa 0 mm - 8 W/m² -
1788547686 11.67° C 84% 1001.7 hPa 0 mm - 12 W/m² -
1788547086 11.67° C 83% 1001.3 hPa 0 mm - 17 W/m² -
1788546486 12.22° C 82% 1001.2 hPa 0 mm - 25 W/m² -
1788545886 12.22° C 80% 1001.1 hPa 0 mm - 42 W/m² -
1788545286 12.22° C 81% 1001 hPa 0 mm - 58 W/m² -
1788544686 12.78° C 80% 1001.1 hPa 0 mm - 58 W/m² -
1788544086 12.78° C 81% 1001 hPa 0 mm - 85 W/m² -
1788543486 12.78° C 81% 1000.9 hPa 0 mm - 95 W/m² -
1788542886 12.78° C 82% 1000.7 hPa 0 mm - 110 W/m² -
1788542286 13.33° C 83% 1000.6 hPa 0 mm - 105 W/m² -
1788541686 13.33° C 84% 1000.5 hPa 0 mm - 150 W/m² -
1788541086 13.33° C 88% 1000.3 hPa 0.25 mm - 141 W/m² -
1788540486 12.78° C 92% 1000.3 hPa 0.76 mm - 175 W/m² -
1788539886 11.67° C 96% 1000 hPa 1.02 mm - 177 W/m² -
1788539286 11.67° C 96% 999.9 hPa 1.02 mm - 120 W/m² -
1788538686 11.67° C 95% 999.8 hPa 1.02 mm - 110 W/m² -
1788538086 12.22° C 95% 999.5 hPa 1.02 mm - 102 W/m² -
1788537486 12.22° C 94% 999.3 hPa 0.76 mm - 93 W/m² -

* Rain latest hour (hover to see other rain measurements)
** Current wind speed in m/s (hover to see current wind gust speed)